Tracking 30009 objects as of 7-Dec-2024
HD Live streaming from Space Station
objects crossing your sky now

STARLINK-31071

Track STARLINK-31071 now!
10-day predictions
STARLINK-31071 is classified as:


NORAD ID: 58602
Int'l Code: 2023-200P
Perigee: 494.0 km
Apogee: 496.5 km
Inclination: 43.0 °
Period: 94.4 minutes
Semi major axis: 6866 km
RCS: Unknown
Launch date: December 19, 2023
Source: United States (US)
Launch site: AIR FORCE EASTERN TEST RANGE (AFETR)
Your satellite tracking list
Your tracking list is empty




NASA's NSSDC Master Catalog

Two Line Element Set (TLE):
1 58602U 23200P   24341.57011674 -.00000619  00000-0 -13820-4 0  9999
2 58602  43.0035  72.7244 0001815 281.5285  78.5362 15.25902216 55464
Source of the keplerian elements: AFSPC